SCP
0 0 0 0 0 0 0 0 0 0 0 0 0 0 0 0 0 0 0 0 0 0 0 0 0 0 0 0 0 0 0 0 0 0 0 0 0 0 0 0 0 0 0 0
0 0 0 0 0 0 0 0 0 0 0 0 0 0 0 0 0 0 0 0 0 0 0 0 0 0 0 0 0 0 0 0 0 0 0 0 0 0 0 0 0 0 0 0
0 0 0 0 0 0 0 0 0 0 0 0 0 0 0 0 0 0 0 0 0 0 0 0 0 0 0 0 0 0 0 0 0 0 0 0 0 0 0 0 0 0 0 0
0 0 0 0 0 0 0 0 0 0 0 0 0 0 0 0 0 0 0 0 0 0 0 0 0 0 0 0 0 0 0 0 0 0 0 0 0 0 0 0 0 0 0 0
0 0 0 0 0 0 0 0 0 0 0 0 0 0 0 0 0 0 0 0 0 0 0 0 0 0 0 0 0 0 0 0 0 0 0 0 0 0 0 0 0 0 0 0
0 0 0 0 0 0 0 0 0 0 0 0 0 0 0 0 0 0 0 0 0 0 0 0 0 0 0 0 0 0 0 0 0 0 0 0 0 0 0 0 0 0 0 0
0 0 0 0 0 0 0 0 0 0 0 0 0 0 0 0 0 0 0 0 0 0 0 0 0 0 0 0 0 0 0 0 0 0 0 0 0 0 0 0 0 0 0 0
0 0 0 0 0 0 0 0 0 0 0 0 0 0 0 0 0 0 0 0 0 0 0 0 0 0 0 0 0 0 0 0 0 0 0 0 0 0 0 0 0 0 0 0
0 0 0 0 0 0 0 0 0 0 0 0 0 0 0 0 0 0 0 0 0 0 0 0 0 0 0 0 0 0 0 0 0 0 0 0 0 0 0 0 0 0 0 0
0 0 0 0 0 0 0 0 0 0 0 0 0 0 0 0 0 0 0 0 -0 -0 -0 -0 -0 -0 0 0 0 0 0 0 0 0 0 0 0 0 0 0 0 0 0 0
0 0 0 0 0 0 0 0 0 0 0 0 0 0 0 0 0 0 0 -0 -0 -0 -0 -0 -0 0 0 0 0 0 0 0 0 0 0 0 0 0 0 0 0 0 0 0
0 0 0 0 0 0 0 0 0 0 0 0 0 0 0 0 0 0 -0 -0 -0 -0 -0 0 0 0 0 0 0 0 0 0 0 0 0 0 0 0 0 0 0 0 0 0
0 0 0 0 0 0 0 0 0 0 0 0 0 0 0 0 -0 -0 -0 -0 -0 0 0 0 0 0 0 0 0 0 0 0 0 0 0 0 0 0 0 0 0 0 -0 -0
0 0 0 0 0 0 0 0 0 0 0 0 0 0 -0 -0 -0 -0 -0 -0 0 0 0 0 0 0 0 0 0 0 0 -0 -0 -0 0 0 0 -0 0 0 0 -0 -0 -0
0 0 0 0 0 0 0 0 0 0 -0 -0 -0 -0 -0 -0 -0 -0 -0 0 0 0 0 0 0 0 0 0 0 0 0 0 0 0 0 0 0 -0 0 0 0 -0 -0 -0
0 0 0 0 0 0 0 0 0 -0 -0 -0 -0 -0 -0 -0 0 0 0 0 0 0 0 0 0 0 0 0 0 0 0 0 0 0 0 0 0 -0 -0 -0 -0 -0 -0 -0
0 0 0 0 0 0 0 0 -0 -0 -0 -0 -0 -0 -0 0 0 0 0 0 0 0 0 0 0 0 0 0 0 0 0 0 0 0 0 0 0 0 0 -0 -0 -0 -0 -0
0 0 0 0 0 0 0 0 -0 -0 -0 -0 -0 -0 -0 -0 0 0 0 0 0 0 0 0 0 0 0 0 0 0 0 0 0 0 0 0 0 0 0 -0 -0 -0 -0 -0
0 0 0 0 0 0 0 0 -0 -0 -0 -0 -0 -0 -0 -0 0 0 0 0 0 0 0 0 0 0 0 0 0 0 0 0 0 0 0 0 0 0 0 0 0 0 0 0
0 0 0 0 0 0 0 0 -0 -0 -0 0 -0 -0 -0 0 0 0 0 0 0 0 0 0 0 0 0 0 0 0 0 0 0 0 0 0 0 0 0 0 0 0 0 0
0 0 0 0 0 0 -0 -0 -0 -0 -0 0 0 -0 0 0 0 0 0 0 0 0 0 0 0 0 0 0 0 0 0 0 0 0 0 0 0 0 0 0 0 0 0 0
0 0 0 0 0 0 -0 -0 -0 -0 -0 -0 -0 -0 0 0 0 0 0 0 0 0 0 0 0 0 0 0 0 0 0 0 0 0 0 0 0 0 0 0 0 0 0 0
0 0 0 0 0 0 -0 -0 -0 -0 -0 -0 -0 -0 0 0 0 0 0 0 0 0 0 0 0 0 0 0 0 0 0 0 0 0 0 0 0 0 0 0 0 0 0 0
0 0 0 0 0 0 -0 -0 -0 -0 -0 -0 -0 -0 0 0 0 0 0 0 0 0 0 0 0 0 0 0 0 0 0 0 0 0 0 0 0 0 0 0 0 0 0 0
0 0 0 0 0 0 -0 -0 -0 -0 -0 -0 -0 -0 0 0 0 0 0 0 0 0 0 0 0 0 0 0 0 0 0 0 0 0 0 0 0 0 0 0 0 0 0 0
0 0 0 0 0 0 -0 -0 -0 -0 -0 -0 -0 -0 0 0 0 0 0 0 0 0 0 0 0 0 0 0 0 0 0 0 0 0 0 0 0 0 0 0 0 0 0 0
0 0 0 0 0 -0 -0 -0 -0 -0 -0 -0 -0 0 0 0 0 0 0 0 0 0 0 0 0 0 0 0 0 0 0 0 0 0 0 0 0 0 0 0 0 0 0 0
Wind_Speed
2 4 5 5 6 5 3 3 6 8 8 4 5 7 8 8 9 9 8 8 8 8 8 8 8 8 8 7 7 8 9 8 7 7 7 7 7 7 6 6 6 5 5 4
6 8 7 8 9 7 7 6 12 14 8 5 6 9 10 9 8 8 8 9 9 8 8 8 8 8 9 8 8 8 8 7 7 7 7 7 6 6 5 5 5 5 4 3
3 6 6 8 9 9 10 9 5 6 6 7 9 12 10 9 9 9 8 7 8 7 8 8 8 8 9 8 8 8 7 7 6 6 7 6 6 5 5 4 4 4 3 2
2 5 3 3 7 14 16 15 12 11 9 9 10 9 9 8 7 7 7 8 8 8 9 8 8 8 9 8 8 8 7 7 6 6 6 6 6 5 4 3 3 2 2 2
3 2 1 2 3 2 6 7 8 7 7 8 10 8 7 7 7 7 7 8 8 8 9 9 8 7 8 8 6 7 6 5 5 5 5 5 5 4 2 2 3 2 2 3
4 2 2 1 7 3 9 5 3 4 2 4 5 2 3 5 7 8 8 8 8 8 9 9 7 7 7 6 5 5 4 4 4 4 5 4 3 2 2 2 3 3 4 4
3 2 0 4 9 4 3 3 1 2 1 1 2 3 8 8 8 8 9 9 8 8 7 6 5 6 6 5 4 3 4 4 4 4 4 3 3 2 3 3 4 4 4 4
2 3 4 5 5 4 2 1 1 1 2 6 9 10 10 10 9 9 9 8 7 7 6 4 4 5 4 3 2 3 4 4 4 3 3 4 4 3 4 4 4 4 4 5
2 2 1 3 4 2 2 2 1 1 3 9 11 11 11 10 9 8 8 6 5 5 5 3 3 3 3 1 2 3 3 3 3 4 3 3 4 4 4 4 3 3 3 4
4 3 3 4 4 5 4 3 2 3 6 9 12 12 11 9 8 7 6 5 4 4 4 2 2 2 1 0 1 2 3 3 3 3 2 3 3 3 2 2 2 3 3 4
4 4 3 3 3 4 4 5 6 7 8 10 13 13 11 9 7 5 4 3 3 4 3 2 2 3 2 2 3 5 4 4 3 2 2 2 1 1 2 2 2 1 2 3
5 6 5 3 3 4 5 5 7 9 10 9 11 11 10 7 5 4 4 3 3 3 3 2 3 3 3 4 5 5 4 2 2 1 1 1 1 0 2 3 3 1 2 4
5 5 6 7 5 5 5 6 7 9 11 11 9 9 8 6 4 4 3 3 4 4 3 3 4 3 3 3 4 4 3 2 2 1 1 1 1 1 1 2 3 4 5 7
9 9 7 5 5 6 8 9 9 10 10 9 8 7 6 4 4 3 3 4 5 5 4 4 3 2 1 3 3 3 2 2 2 2 2 2 1 1 1 1 1 3 4 6
6 7 8 8 8 8 8 8 9 9 8 7 6 6 5 4 4 4 4 5 5 5 4 3 2 1 2 1 1 1 1 1 1 1 2 2 1 1 1 1 1 1 3 4
9 10 10 10 10 9 8 8 8 7 6 5 5 5 5 5 5 5 5 6 6 4 2 2 0 2 2 1 2 2 2 3 3 1 1 1 1 1 1 1 1 1 2 3
12 10 10 10 10 9 8 7 7 6 6 5 6 6 7 7 7 7 5 5 5 3 2 1 1 2 1 1 2 2 2 2 2 1 1 1 1 1 1 1 1 1 1 3
10 10 10 10 9 9 8 7 7 7 6 7 8 8 8 8 7 6 5 5 5 3 2 2 4 4 4 3 2 0 1 2 2 2 1 1 1 1 1 2 2 1 1 2
9 10 10 9 9 8 7 7 7 6 7 8 9 8 8 7 6 6 5 5 4 2 3 5 7 5 5 5 4 2 3 3 2 2 2 3 3 2 2 2 2 2 1 2
10 11 11 10 9 8 8 7 7 7 7 8 8 8 7 6 6 6 5 3 2 2 2 3 4 5 5 5 4 3 4 4 4 3 3 3 3 3 3 3 3 2 2 2
12 12 11 10 9 8 8 8 8 8 8 8 8 7 6 6 6 6 5 2 2 1 2 4 4 4 4 4 5 4 4 4 4 3 3 3 3 3 3 3 3 3 3 2
11 10 10 9 9 7 7 7 8 8 8 7 7 7 7 6 5 4 3 2 2 2 3 3 3 5 6 6 4 4 4 4 3 3 3 3 3 3 3 4 3 3 3 3
10 10 10 9 9 8 7 7 8 8 7 7 7 7 7 5 5 5 2 2 1 3 3 2 3 8 9 5 4 5 5 4 4 3 3 3 4 4 4 4 4 4 4 4
10 9 9 8 8 7 7 6 7 6 6 6 6 7 7 5 3 2 3 3 3 3 2 2 4 6 6 3 4 4 4 4 4 4 4 4 4 4 4 4 4 4 4 5
10 9 8 9 8 6 6 6 6 5 5 4 5 7 6 5 5 4 3 2 2 2 1 2 3 4 4 3 3 4 3 4 4 4 4 4 4 4 4 4 5 4 4 4
9 8 7 7 6 5 5 5 4 4 4 4 4 4 4 4 5 4 3 2 2 1 1 1 2 4 3 3 4 3 3 4 5 5 5 5 5 5 5 5 6 5 4 4
9 7 6 5 4 5 5 5 4 4 5 6 5 5 5 5 4 4 3 2 2 1 0 1 3 4 4 4 4 4 4 4 4 4 4 5 5 5 5 6 5 4 4 5
Wind_Direction
39 8 12 10 4 22 58 136 136 131 114 90 66 78 83 90 92 94 97 101 107 107 105 102 97 91 89 86 83 87 84 79 76 72 71 67 65 64 63 65 73 79 90 101
13 9 15 23 17 47 47 67 118 115 98 89 71 69 66 70 84 91 95 101 104 105 103 102 101 97 90 81 77 80 80 76 71 69 67 68 68 68 66 62 61 70 79 89
355 343 29 18 6 71 64 40 99 107 114 114 78 62 53 51 64 80 87 93 98 97 94 94 95 97 93 87 78 72 71 72 71 72 70 61 69 67 61 58 61 65 59 48
52 39 62 94 75 84 75 52 59 85 95 99 95 78 53 45 62 75 82 89 91 94 94 90 89 88 88 82 78 76 75 76 76 79 79 75 69 61 54 54 58 50 32 21
102 115 173 95 30 49 104 62 39 83 103 122 129 104 66 44 57 75 85 91 93 97 98 93 88 87 88 84 84 87 85 83 84 93 95 84 71 57 46 51 41 31 23 24
110 139 209 327 326 356 107 101 14 57 101 173 185 166 127 95 85 86 89 92 95 94 93 91 86 86 90 91 91 95 97 95 98 102 101 96 86 62 42 55 44 32 29 20
126 167 244 321 320 355 132 171 320 36 15 66 104 122 122 114 104 101 98 94 93 92 90 91 94 96 98 101 104 110 100 91 94 107 111 103 78 55 52 53 42 30 20 359
138 180 231 330 25 74 158 162 55 35 71 108 112 114 117 117 113 107 100 92 91 92 89 88 93 97 96 102 120 109 100 92 87 82 89 92 79 55 48 53 42 21 3 349
138 157 92 38 85 75 92 87 20 24 125 131 128 125 122 118 114 108 103 95 85 90 87 71 77 99 105 141 139 118 108 107 98 85 73 84 88 76 55 46 39 8 353 339
96 105 100 76 69 53 57 62 50 111 128 131 127 127 124 120 113 107 101 97 92 91 88 67 44 63 123 229 133 118 123 124 121 110 84 74 83 95 86 59 35 6 348 333
111 144 125 86 77 81 73 74 84 94 110 123 126 126 125 122 120 120 118 113 107 105 100 81 47 40 38 53 87 99 116 127 126 125 125 118 116 149 146 182 183 189 314 312
189 182 159 157 129 112 104 102 110 111 108 111 120 123 124 125 130 132 132 121 111 108 102 92 79 63 57 78 101 111 114 125 139 145 151 165 176 292 240 210 212 233 307 326
133 120 116 120 118 119 117 117 117 118 121 121 120 124 126 131 139 139 137 132 132 130 121 105 89 73 58 74 96 113 133 152 164 171 175 176 178 184 279 307 293 292 301 331
114 109 107 117 125 123 120 119 116 115 119 123 126 128 131 135 141 147 149 144 133 124 118 112 102 94 108 105 102 115 141 170 174 188 190 189 182 180 175 170 312 317 314 330
122 120 129 130 125 123 124 122 119 121 126 128 134 137 139 139 143 140 131 120 111 109 115 121 132 199 214 151 133 146 167 206 211 198 187 192 180 157 146 149 176 325 340 340
126 124 129 131 134 136 136 133 132 137 139 138 139 141 137 127 115 108 107 109 109 113 116 113 228 263 243 214 224 234 243 233 205 191 188 174 158 145 131 122 120 38 359 342
137 144 146 144 145 145 145 146 146 148 146 143 140 130 117 106 99 98 99 102 107 108 97 76 335 322 316 271 259 241 236 233 198 135 142 158 155 156 154 144 136 107 347 348
152 153 153 150 149 146 144 142 140 139 140 138 129 122 119 118 120 121 116 101 85 60 20 351 353 355 354 340 325 191 151 155 144 142 144 143 135 114 113 115 118 116 358 347
147 147 145 143 142 140 138 139 139 137 130 126 124 124 128 132 134 131 120 107 99 60 327 342 3 13 354 347 10 71 91 98 95 101 102 92 81 77 90 96 100 106 89 12
141 142 142 141 138 135 138 139 132 126 126 126 123 122 124 131 131 129 124 128 184 222 295 6 18 5 353 354 30 80 90 92 89 85 84 84 86 80 79 85 84 76 64 33
142 142 142 141 139 139 140 136 129 129 131 130 131 136 137 134 128 122 118 119 282 325 31 28 21 357 354 19 55 80 90 90 86 85 86 85 82 78 74 71 68 65 59 41
142 141 141 138 135 134 135 131 131 133 132 132 133 131 127 127 128 122 131 173 213 113 79 45 21 26 40 48 55 67 78 83 79 77 77 79 83 82 76 74 68 62 55 43
138 139 138 138 138 136 132 133 136 138 141 143 141 139 139 142 142 136 149 234 180 115 95 62 45 51 51 49 52 60 67 75 78 78 76 77 82 86 82 75 67 63 58 46
134 136 136 134 128 126 132 142 143 144 147 147 146 144 139 129 123 156 170 170 152 114 82 44 55 68 70 69 62 63 64 72 78 80 76 71 74 77 78 75 68 62 58 52
137 135 134 133 132 140 149 146 139 141 140 133 136 140 143 146 152 174 176 176 164 105 34 22 56 84 93 95 81 72 69 80 93 92 82 78 75 75 75 73 71 66 60 51
137 139 142 145 145 146 145 140 140 147 140 129 126 134 138 140 145 154 168 195 216 272 7 12 85 98 99 96 91 85 77 77 80 83 88 85 80 77 77 76 72 65 58 52
131 131 131 131 138 143 141 142 147 153 147 142 141 149 150 151 159 176 193 212 230 245 31 98 116 110 101 93 87 83 79 79 84 89 91 90 87 83 80 79 73 67 60 53